Showing default

KUIPER-00069, 64816

Orbit data source: Space-Track

KUIPER-00069, 64816 is a payload satellite owned by Kuiper Systems (US) in LEO that was launched on Wed, 16 Jul 2025 UTC via an FALCON 9 launch vehicle from the Air Force Eastern Test Range (AFETR). Payload-class satellites include a variety of spacecraft equipped with specific instruments for various scientific and technological missions. These include communications satellites like Starlink; space stations such as the ISS; scientific satellites like the Hubble; Earth observation satellites from companies like Planet Labs, Umbra, and HawkEye 360; GPS; miniature CubeSats for education and research; and military/defense satellites.

Loading next visibility...
Identifier
64816, 2025-151A
Orbit
LEO
Country
Flag of USUS
Related business
Manufacturer
Kuiper Systems
Mission
Operational Commercial Communications
Bus & Motor
KUIPER, Unknown motor
Mass
~490 kg wet, ~490 kg dry
Launch date (UTC)
2025-07-16 (11 months ago)
Launch vehicle
FALCON 9
Launch site
Air Force Eastern Test Range (AFETR)
Object type
Payload
Rocket body
Debris
Shape & HBR
Box + 2 Pan, 3.4 m
Radar Cross Section
2.326 m², Large (>1 m²)

Expand to show TLE details & history
Last TLE update: 8 hours ago

TLE from 8 hours ago
0 KUIPER-00069
1 64816U 25151A   26166.83489295 -.00018463  00000-0 -23973-2 0  9998
2 64816  51.9005 206.6411 0001028  97.8784 262.2296 14.79971431 51293
Epoch: 2026-06-15T20:02Z
TLE epoch observation values (Epoch: 2026-06-15T20:02:14.750Z)
Latitude
0.00003°
Longitude
1.96408°
Altitude
630.259 km
Speed
7.544 km/s
True Right ascension
13h 46m 33s
True Declination
0° 00' 00"
Sunlit
Object was in full shadow at epoch
Visualization orbit readout
Latitude
Unknown
Longitude
Unknown
Altitude
Unknown
Speed
Unknown
Apparent Right ascension
Unknown
Apparent Declination
Unknown
Sunlit
N/A
Visualization observer readout
Local Sidereal Time
14:43:18
Azimuth
Unknown
Elevation
Unknown
Doppler factor
Unknown
Orbital elements
Apogee altitude
630.586 km
Perigee altitude
629.145 km
Semi-major axis
7,008.002 km
Eccentricity
0.0001
Inclination
51.9005°
RAAN
206.6411°
Arg. of periapsis
97.8784°
True anomaly
262.21793°
Mean anomaly
262.2296°
Eccentric anomaly
262.22376°
Mean motion
3.69957 °/min
Orbital period
97.31 mins
BSTAR
-0.0023973
Loading maneuver chart data...
Computing Atmospheric mass density...
Loading historical data...
Loading historical data...
Loading historical data...
Loading historical data...
Loading historical data...
Loading historical data...
Loading historical data...

Documentation

Showing up to 5 results
|